Location: Hohenfelde
(53.8441°N, 9.6220°E)
Time: 12:06:29
(UTC+00:00)

Cosmos 1697 Rocket - Pass Details

Date: 14 July 2020
Orbit: 834 x 842 km, 71.0° (Epoch: 09 August)

Event Time Altitude Azimuth Distance (km) Brightness Sun altitude
Rises 00:22:57 0° 327° (NNW) 3,402 6.6 -13.6°
Reaches altitude 10° 00:25:26 10° 331° (NNW) 2,463 5.8 -13.5°
Maximum altitude 00:31:02 60° 52° (NE) 954 3.2 -13.3°
Drops below altitude 10° 00:36:35 10° 132° (SE) 2,444 4.9 -13.1°
Sets 00:39:03 0° 136° (SE) 3,374 5.5 -13.0°
